GW1545 Weather Reports


time (UTC)temp
C
wind
direction
speed
KPH
gust
KPH
rain 1hr
cm
rain 24hr
cm
rain mn
cm
humidity
%
barometer
mb
20260508170941 18 246 8.0 12.9 0.00 0.00 0.00 43 1018.9
20260508170314 18 211 14.5 16.1 0.00 0.00 0.00 45 1018.9
20260508165709 19 232 1.6 3.2 0.00 0.00 0.00 49 1019.3
20260508165120 18 105 9.7 14.5 0.00 0.00 0.00 45 1019.3
20260508164533 18 227 6.4 11.3 0.00 0.00 0.00 43 1019.3
20260508163331 18 225 12.9 14.5 0.00 0.00 0.00 43 1019.6
20260508162723 18 247 8.0 11.3 0.00 0.00 0.00 44 1019.6
20260508162130 17 231 6.4 9.7 0.00 0.00 0.00 44 1019.9
20260508161515 18 237 6.4 9.7 0.00 0.00 0.00 48 1019.9
20260508160931 17 238 3.2 3.2 0.00 0.00 0.00 47 1019.9
20260508160338 18 276 4.8 4.8 0.00 0.00 0.00 49 1019.9
20260508155110 18 253 4.8 6.4 0.00 0.00 0.00 45 1020.3
20260508154521 18 241 6.4 6.4 0.00 0.00 0.00 50 1020.3
20260508153937 17 257 9.7 12.9 0.00 0.00 0.00 49 1020.3
20260508153342 17 247 6.4 9.7 0.00 0.00 0.00 50 1020.3
20260508152746 16 237 3.2 4.8 0.00 0.00 0.00 50 1020.3
20260508151536 17 196 1.6 3.2 0.00 0.00 0.00 51 1020.3
20260508150945 16 243 9.7 11.3 0.00 0.00 0.00 54 1020.3
20260508145746 16 179 6.4 8.0 0.00 0.00 0.00 55 1020.3
20260508145148 15 258 3.2 4.8 0.00 0.00 0.00 56 1020.3
20260508143942 15 237 4.8 6.4 0.00 0.00 0.00 56 1020.3
20260508142727 13 261 6.4 9.7 0.00 0.00 0.00 59 1020.3
20260508142149 13 255 9.7 11.3 0.00 0.00 0.00 59 1020.3
20260508141518 13 266 4.8 6.4 0.00 0.00 0.00 63 1020.3
20260508140936 13 244 8.0 11.3 0.00 0.00 0.00 61 1020.3
20260508135748 12 245 6.4 8.0 0.00 0.00 0.00 63 1020.3
20260508135146 12 241 8.0 9.7 0.00 0.00 0.00 64 1020.3
20260508134522 11 238 12.9 14.5 0.00 0.00 0.00 63 1020.3
20260508133916 11 227 4.8 6.4 0.00 0.00 0.00 66 1020.3
20260508133312 11 219 3.2 4.8 0.00 0.00 0.00 69 1020.3
20260508132726 11 254 4.8 6.4 0.00 0.00 0.00 69 1020.3
20260508132122 10 208 8.0 11.3 0.00 0.00 0.00 69 1020.6
20260508130308 9 226 8.0 11.3 0.00 0.00 0.00 73 1020.6
20260508125126 8 231 4.8 6.4 0.00 0.00 0.00 75 1020.6
20260508123936 8 189 8.0 9.7 0.00 0.00 0.00 75 1020.6
20260508123350 8 231 8.0 11.3 0.00 0.00 0.00 76 1020.3
20260508122731 8 197 8.0 9.7 0.00 0.00 0.00 78 1020.3
20260508122120 8 204 8.0 8.0 0.00 0.00 0.00 77 1020.3
20260508121538 7 208 6.4 8.0 0.00 0.00 0.00 77 1020.3
20260508120920 7 227 3.2 4.8 0.00 0.00 0.00 79 1020.3
20260508115710 6 232 0.0 3.2 0.00 0.00 0.00 84 1019.9
20260508115148 6 136 0.0 1.6 0.00 0.00 0.00 84 1020.3
20260508114519 5 157 1.6 3.2 0.00 0.00 0.00 85 1020.3
20260508113930 5 222 3.2 3.2 0.00 0.00 0.00 86 1019.9
20260508113316 5 226 4.8 6.4 0.00 0.00 0.00 86 1019.9
20260508112719 5 220 0.0 3.2 0.00 0.00 0.00 86 1019.9
20260508112143 5 188 1.6 3.2 0.00 0.00 0.00 87 1019.9
20260508111542 5 194 1.6 3.2 0.00 0.00 0.00 86 1019.9
20260508110922 5 219 0.0 1.6 0.00 0.00 0.00 87 1019.9
20260508110326 4 197 1.6 3.2 0.00 0.00 0.00 88 1019.6
20260508105142 4 216 1.6 3.2 0.00 0.00 0.00 88 1019.6
20260508103936 4 236 3.2 4.8 0.00 0.00 0.00 88 1019.3
20260508103338 4 218 3.2 3.2 0.00 0.00 0.00 88 1019.3
20260508102715 4 166 3.2 6.4 0.00 0.00 0.00 88 1019.3
20260508102115 4 231 1.6 1.6 0.00 0.00 0.00 88 1019.3
20260508101512 4 246 1.6 3.2 0.00 0.00 0.00 88 1019.3
20260508100938 4 246 4.8 6.4 0.00 0.00 0.00 88 1019.3
20260508100331 4 231 1.6 3.2 0.00 0.00 0.00 88 1019.3
20260508095748 4 230 1.6 3.2 0.00 0.00 0.00 88 1018.9
20260508095130 4 240 1.6 3.2 0.00 0.00 0.00 88 1019.3
20260508094522 4 226 1.6 3.2 0.00 0.00 0.00 88 1019.3
20260508093943 4 232 1.6 3.2 0.00 0.00 0.00 88 1019.3
20260508092722 5 231 0.0 1.6 0.00 0.00 0.00 88 1019.3
20260508092142 5 199 3.2 3.2 0.00 0.00 0.00 88 1019.3
20260508091528 5 145 1.6 3.2 0.00 0.00 0.00 88 1019.3
20260508090932 5 267 1.6 3.2 0.00 0.00 0.00 88 1019.3
20260508085139 5 217 3.2 3.2 0.00 0.00 0.00 87 1018.9
20260508084547 5 202 3.2 3.2 0.00 0.00 0.00 87 1018.9
20260508083912 5 217 3.2 4.8 0.00 0.00 0.00 87 1018.9
20260508083313 5 218 3.2 4.8 0.00 0.00 0.00 85 1018.9
20260508082735 5 174 1.6 3.2 0.00 0.00 0.00 84 1018.9
20260508082150 5 173 1.6 3.2 0.00 0.00 0.00 84 1018.9
20260508081537 5 232 1.6 1.6 0.00 0.00 0.00 83 1018.9
20260508080328 5 164 3.2 3.2 0.00 0.00 0.00 81 1018.9
20260508075731 5 189 0.0 3.2 0.00 0.00 0.00 81 1018.9
20260508075120 6 252 1.6 3.2 0.00 0.00 0.00 81 1018.9
20260508074529 6 238 1.6 3.2 0.00 0.00 0.00 80 1018.9
20260508073327 6 203 0.0 1.6 0.00 0.00 0.00 80 1018.9
20260508072733 6 164 1.6 3.2 0.00 0.00 0.00 80 1018.9
20260508072115 6 190 0.0 3.2 0.00 0.00 0.00 79 1018.9
20260508071537 6 238 1.6 1.6 0.00 0.00 0.00 78 1018.9
20260508070951 6 169 3.2 6.4 0.00 0.00 0.00 77 1018.6
20260508070338 6 166 3.2 3.2 0.00 0.00 0.00 76 1018.9
20260508065738 7 232 1.6 3.2 0.00 0.00 0.00 74 1018.6
20260508065133 7 238 3.2 3.2 0.00 0.00 0.00 73 1018.6
20260508064520 7 168 3.2 3.2 0.00 0.00 0.00 73 1018.9
20260508063925 7 182 1.6 3.2 0.00 0.00 0.00 72 1018.9
20260508063318 7 157 1.6 3.2 0.00 0.00 0.00 72 1018.9
20260508062742 7 146 1.6 3.2 0.00 0.00 0.00 72 1018.9
20260508062146 7 213 3.2 3.2 0.00 0.00 0.00 70 1018.9
20260508061530 7 165 1.6 3.2 0.00 0.00 0.00 70 1018.9
20260508060909 7 95 1.6 3.2 0.00 0.00 0.00 69 1019.3
20260508060341 7 180 3.2 4.8 0.00 0.00 0.00 69 1019.3
20260508055751 7 111 4.8 6.4 0.00 0.00 0.00 70 1018.9
20260508055141 7 136 3.2 4.8 0.00 0.00 0.00 72 1018.9
20260508054544 7 139 3.2 3.2 0.00 0.00 0.00 70 1019.3
20260508052738 6 172 1.6 3.2 0.00 0.00 0.00 72 1018.9
20260508052132 6 233 0.0 0.0 0.00 0.00 0.00 69 1018.9
20260508051526 6 225 0.0 0.0 0.00 0.00 0.00 67 1018.9
20260508050945 7 231 0.0 1.6 0.00 0.00 0.00 65 1018.9
20260508050309 7 220 0.0 1.6 0.00 0.00 0.00 67 1018.9
20260508045724 7 229 0.0 0.0 0.00 0.00 0.00 69 1018.9
20260508045128 7 220 0.0 0.0 0.00 0.00 0.00 69 1018.6
20260508044542 7 179 0.0 0.0 0.00 0.00 0.00 65 1018.9
20260508043936 8 115 0.0 0.0 0.00 0.00 0.00 59 1018.9
20260508043347 8 119 0.0 0.0 0.00 0.00 0.00 57 1018.9
20260508042723 7 107 0.0 0.0 0.00 0.00 0.00 58 1018.9
20260508042141 7 164 0.0 0.0 0.00 0.00 0.00 59 1018.6
20260508041532 8 102 0.0 1.6 0.00 0.00 0.00 59 1018.9
20260508040318 8 87 1.6 3.2 0.00 0.00 0.00 59 1018.9
20260508035120 9 90 0.0 1.6 0.00 0.00 0.00 54 1018.6
20260508034526 9 353 0.0 1.6 0.00 0.00 0.00 52 1018.9
20260508033916 10 346 0.0 1.6 0.00 0.00 0.00 52 1018.9
20260508033321 10 102 0.0 0.0 0.00 0.00 0.00 53 1018.9
20260508032734 10 57 1.6 3.2 0.00 0.00 0.00 52 1018.9
20260508032147 10 47 0.0 3.2 0.00 0.00 0.00 51 1018.9
20260508031526 10 319 1.6 1.6 0.00 0.00 0.00 51 1018.9
20260508030931 10 23 1.6 3.2 0.00 0.00 0.00 50 1018.9
20260508030311 10 61 1.6 3.2 0.00 0.00 0.00 53 1018.9
20260508025719 9 67 0.0 1.6 0.00 0.00 0.00 54 1018.9
20260508025114 10 113 0.0 0.0 0.00 0.00 0.00 54 1018.9
20260508024525 10 97 0.0 0.0 0.00 0.00 0.00 52 1018.6
20260508023946 10 76 0.0 1.6 0.00 0.00 0.00 52 1018.6
20260508023341 10 68 0.0 1.6 0.00 0.00 0.00 52 1018.6
20260508022723 10 22 0.0 0.0 0.00 0.00 0.00 51 1018.2
20260508021515 11 42 1.6 3.2 0.00 0.00 0.00 49 1017.9
20260508020945 10 8 3.2 3.2 0.00 0.00 0.00 50 1017.9
20260508020349 10 73 0.0 0.0 0.00 0.00 0.00 51 1017.9
20260508015738 10 25 0.0 1.6 0.00 0.00 0.00 50 1017.9
20260508015145 11 38 0.0 1.6 0.00 0.00 0.00 49 1017.9
20260508014517 11 31 1.6 3.2 0.00 0.00 0.00 49 1017.9
20260508012725 11 55 0.0 1.6 0.00 0.00 0.00 48 1017.6
20260508011528 11 22 3.2 3.2 0.00 0.00 0.00 47 1017.6
20260508010935 11 44 3.2 4.8 0.00 0.00 0.00 47 1017.2
20260508010349 11 70 0.0 1.6 0.00 0.00 0.00 50 1017.2
20260508005736 11 73 0.0 0.0 0.00 0.00 0.00 48 1017.2
20260508003908 12 51 0.0 1.6 0.00 0.00 0.00 48 1017.2
20260508003340 12 351 1.6 3.2 0.00 0.00 0.00 46 1017.2
20260508002734 13 47 3.2 3.2 0.00 0.00 0.00 46 1017.2
20260508002111 13 273 0.0 1.6 0.00 0.00 0.00 47 1016.9
20260508001532 13 343 1.6 3.2 0.00 0.00 0.00 46 1016.9
20260508000949 13 6 3.2 4.8 0.00 0.00 0.00 44 1016.9
20260508000335 14 28 0.0 1.6 0.00 0.00 0.00 44 1016.9
20260507235747 14 285 0.0 0.0 0.00 0.00 0.00 44 1016.9
20260507235119 14 104 0.0 1.6 0.00 0.00 0.00 43 1016.9
20260507234551 15 323 0.0 1.6 0.00 0.00 0.00 41 1016.5
20260507233938 15 267 3.2 4.8 0.00 0.00 0.00 42 1016.5
20260507233347 15 189 4.8 6.4 0.00 0.00 0.00 42 1016.2
20260507231535 17 178 3.2 3.2 0.00 0.00 0.00 40 1016.5
20260507225744 17 259 14.5 20.9 0.00 0.00 0.00 39 1016.2
20260507225120 17 15 3.2 6.4 0.00 0.00 0.00 41 1016.5
20260507224527 17 253 3.2 6.4 0.00 0.00 0.00 41 1016.2
20260507223918 17 58 1.6 3.2 0.00 0.00 0.00 41 1016.2
20260507223338 18 244 1.6 3.2 0.00 0.00 0.00 43 1016.2
20260507222719 18 240 1.6 3.2 0.00 0.00 0.00 41 1016.2
20260507221516 18 293 4.8 8.0 0.00 0.00 0.00 39 1016.2
20260507220312 17 238 11.3 17.7 0.00 0.00 0.00 41 1016.2
20260507215738 18 268 4.8 6.4 0.00 0.00 0.00 41 1015.9
20260507215144 18 65 4.8 8.0 0.00 0.00 0.00 43 1015.9
20260507213944 18 244 1.6 3.2 0.00 0.00 0.00 43 1015.9
20260507212737 16 318 3.2 3.2 0.00 0.00 0.00 46 1015.9
20260507211532 16 213 9.7 11.3 0.00 0.00 0.00 44 1015.5
20260507210928 18 349 1.6 3.2 0.00 0.00 0.00 44 1015.5
20260507210344 17 272 6.4 9.7 0.00 0.00 0.00 44 1015.5
20260507204547 18 283 6.4 11.3 0.00 0.00 0.00 43 1015.5
20260507202737 18 233 8.0 11.3 0.00 0.00 0.00 42 1015.5
20260507202152 18 329 8.0 11.3 0.00 0.00 0.00 45 1015.5
20260507201538 18 227 4.8 6.4 0.00 0.00 0.00 44 1015.2
20260507200938 17 260 4.8 9.7 0.00 0.00 0.00 45 1015.5
20260507195752 18 35 4.8 8.0 0.00 0.00 0.00 43 1015.5
20260507195151 18 285 8.0 11.3 0.00 0.00 0.00 46 1015.5
20260507194514 17 231 12.9 17.7 0.00 0.00 0.00 43 1015.5
20260507193951 17 245 1.6 3.2 0.00 0.00 0.00 45 1015.5
20260507192732 17 205 14.5 19.3 0.00 0.00 0.00 45 1015.5
20260507192146 17 203 11.3 19.3 0.00 0.00 0.00 46 1015.9
20260507191535 17 238 6.4 6.4 0.00 0.00 0.00 48 1015.9
20260507190936 17 301 0.0 1.6 0.00 0.00 0.00 52 1015.9
20260507185724 16 225 8.0 9.7 0.00 0.00 0.00 46 1016.2
20260507185150 17 45 6.4 9.7 0.00 0.00 0.00 47 1015.9
20260507184549 16 167 3.2 4.8 0.00 0.00 0.00 49 1015.9
20260507183952 17 345 9.7 11.3 0.00 0.00 0.00 52 1016.2
20260507183308 17 210 8.0 11.3 0.00 0.00 0.00 50 1015.9
20260507182714 16 169 9.7 11.3 0.00 0.00 0.00 50 1016.2
20260507182150 16 223 8.0 11.3 0.00 0.00 0.00 56 1016.2
20260507181510 15 208 11.3 16.1 0.00 0.00 0.00 52 1016.2
20260507180928 16 237 9.7 12.9 0.00 0.00 0.00 52 1016.2
20260507180324 17 233 11.3 16.1 0.00 0.00 0.00 52 1016.2
20260507174520 15 240 3.2 3.2 0.00 0.00 0.00 51 1016.5
20260507173945 16 257 3.2 4.8 0.00 0.00 0.00 55 1016.9
20260507172732 15 225 9.7 12.9 0.00 0.00 0.00 54 1016.9
20260507172129 15 300 4.8 4.8 0.00 0.00 0.00 54 1016.9